Flag for Hungary Weather past 2 weeks in Debrecen, Hungary

Now
66 °F

Sunny.


Feels Like: 66 °F
Forecast: 66 / 87 °F
Wind: 6 mph from Northeast

Location: Debrecen Airport

Current Time: Jul 26, 2014 at 7:50:21 AM

Latest Report: Jul 26, 2014 at 6:45 AM


Visibility: 10 mi

Pressure: 29.95 "Hg

Humidity: 94%

Dew point: 64 °F

Location of DebrecenLocation

Historic Weather in Debrecen — Graph

°F

Debrecen temperature yesterday

Maximum temperature yesterday: 84 °F (at 3:15 PM)
Minimum temperature yesterday: 61 °F (at 5:15 AM)
Average temperature yesterday: 76 °F

Past Weeks' High & Low Weather Summary

 TemperatureHumidityPressure
High90 °F (Jul 21, 2:45 PM)100% (Jul 11, 8:15 AM)30.04 "Hg (Jul 11, 8:15 AM)
Low57 °F (Jul 13, 4:45 AM)33% (Jul 16, 3:45 PM)29.56 "Hg (Jul 11, 1:15 PM)
Average74 °F68%29.88 "Hg
* Reported Jul 11 6:15 AM — Jul 26 6:45 AM, Debrecen, Weather by CustomWeather, © 2014

Note: Actual official high and low records may vary slightly from our data, if they occured in-between our weather recording intervals... More about our weather records

Advertising

Debrecen weather history for previous 24 hours

 ConditionsComfort  
Time TempWeatherWind HumidityBarometerVisibility
6:45 AM
Jul 26
66 °FSunny.6 mph94%29.95 "Hg10 mi
5:45 AM64 °FClear.6 mph94%29.95 "Hg10 mi
5:15 AM64 °FClear.6 mph94%29.95 "Hg10 mi
4:45 AM64 °FClear.3 mph94%29.95 "Hg10 mi
8:45 PM
Jul 25
75 °FSunny.6 mph65%29.92 "Hg10 mi
8:15 PM77 °FSunny.7 mph61%29.92 "Hg10 mi
7:45 PM79 °FSunny.9 mph58%29.92 "Hg10 mi
7:15 PM79 °FSunny.7 mph58%29.92 "Hg10 mi
6:45 PM81 °FSunny.6 mph51%29.92 "Hg10 mi
6:15 PM81 °FSunny.8 mph51%29.92 "Hg10 mi
5:45 PM82 °FSunny.6 mph45%29.89 "Hg10 mi
5:15 PM84 °FSunny.3 mph43%29.89 "Hg10 mi
4:45 PM84 °FSunny.2 mph40%29.89 "Hg10 mi
4:15 PM82 °FSunny.3 mph45%29.89 "Hg10 mi
3:45 PM84 °FSunny.1 mph43%29.92 "Hg10 mi
3:15 PM84 °FScattered clouds.3 mph48%29.92 "HgN/A
2:45 PM82 °FScattered clouds.3 mph45%29.92 "HgN/A
2:15 PM81 °FScattered clouds.3 mph51%29.92 "HgN/A
1:45 PM82 °FPartly sunny.6 mph48%29.92 "HgN/A
1:15 PM81 °FScattered clouds.6 mph51%29.92 "HgN/A
12:45 PM81 °FScattered clouds.3 mph51%29.92 "HgN/A
12:15 PM81 °FScattered clouds.3 mph51%29.92 "HgN/A
11:45 AM79 °FScattered clouds.6 mph58%29.95 "HgN/A
11:15 AM79 °FScattered clouds.2 mph61%29.92 "HgN/A
10:45 AM77 °FPassing clouds.6 mph65%29.92 "HgN/A
10:15 AM77 °FSunny.7 mph65%29.92 "Hg10 mi
9:45 AM75 °FSunny.6 mph69%29.92 "Hg10 mi
9:15 AM73 °FSunny.5 mph74%29.92 "Hg10 mi
8:45 AM73 °FSunny.5 mph74%29.92 "Hg10 mi
8:15 AM72 °FSunny.5 mph78%29.92 "Hg10 mi
7:45 AM70 °FSunny.3 mph83%29.92 "Hg10 mi
7:15 AM68 °FSunny.3 mph83%29.92 "Hg10 mi
Weather by CustomWeather, © 2014

See weather overviewHow to use our weather pages